Flag for Uganda Weather past 2 weeks in Entebbe, Uganda

Now
77 °F

Warm.


Feels Like: 79 °F
Forecast: 62 / 74 °F
Wind: 9 mph from South

Location: Entebbe Airport

Current Time: Aug 30, 2014 at 4:21:07 PM

Latest Report: Aug 30, 2014 at 3:00 PM


Visibility: N/A

Pressure: 30.01 "Hg

Humidity: 69%

Dew point: 66 °F

Location of EntebbeLocation

Historic Weather in Entebbe — Graph

°F

Entebbe temperature yesterday

Maximum temperature yesterday: 79 °F (at 1:00 PM)
Minimum temperature yesterday: 66 °F (at 12:00 AM)
Average temperature yesterday: 72 °F

Past Weeks' High & Low Weather Summary

 TemperatureHumidityPressure
High82 °F (Aug 23, 2:00 PM)100% (Aug 17, 6:00 AM)30.15 "Hg (Aug 17, 6:00 AM)
Low57 °F (Aug 17, 5:00 PM)54% (Aug 20, 11:00 AM)29.92 "Hg (Aug 23, 5:00 PM)
Average72 °F79%30.05 "Hg
* Reported Aug 15 3:00 PM — Aug 30 3:00 PM, Entebbe, Weather by CustomWeather, © 2014

Note: Actual official high and low records may vary slightly from our data, if they occured in-between our weather recording intervals... More about our weather records

Advertising

Entebbe weather history for previous 24 hours

 ConditionsComfort  
Time TempWeatherWind HumidityBarometerVisibility
3:00 PM
Aug 30
77 °FWarm.9 mph69%30.01 "HgN/A
2:00 PM75 °FPassing clouds.5 mph69%30.04 "HgN/A
8:00 AM64 °FThunderstorms. Mostly cloudy.8 mph88%30.09 "Hg6 mi
7:00 AM66 °FThunderstorms. Mostly cloudy.16 mph88%30.09 "Hg4 mi
6:00 AM68 °FMild.5 mph88%30.07 "Hg6 mi
5:00 AM68 °FMostly cloudy.5 mph83%30.07 "Hg6 mi
2:00 AM68 °FPartly cloudy.14 mph88%30.04 "Hg6 mi
1:00 AM68 °FPartly cloudy.13 mph83%30.07 "Hg6 mi
12:00 AM68 °FMild.N/A83%30.09 "HgN/A
10:00 PM
Aug 29
68 °FMostly cloudy.10 mph88%30.07 "Hg6 mi
9:00 PM68 °FMostly cloudy.10 mph88%30.04 "Hg5 mi
8:00 PM68 °FDrizzle. Mostly cloudy.9 mph88%30.01 "Hg5 mi
7:00 PM70 °FMostly cloudy.6 mph83%30.04 "Hg6 mi
6:00 PM70 °FMore clouds than sun.7 mph83%30.01 "Hg6 mi
5:00 PM73 °FPartly sunny.5 mph83%29.98 "Hg6 mi
4:00 PM75 °FThunderstorms. Cloudy.6 mph78%29.98 "Hg6 mi
Weather by CustomWeather, © 2014

See weather overviewHow to use our weather pages